#timestamp,LO_Frequency,Hit,StdDev 
1602029535.3,286047003.2,P
1602029555.1,286047004.2,P
1602029575.9,286047001.8,N
1602029595.7,286047002.8,N
1602029615.5,286047001.6,N
1602029635.4,286047003.1,Y
1602029655.2,286047001.0,P
1602029675.1,286047000.2,N
1602029676.0,286047000.2,N
1602029695.8,286047000.4,N
1602029715.6,286047002.4,N
1602029735.5,286047002.0,N
1602029755.3,286047001.8,N
1602029775.2,286047002.6,N
1602029795.9,286047000.0,N
1602029815.7,286047002.3,N
1602029835.6,286047004.1,Y
1602029855.4,286047002.0,P
1602029875.2,286047000.6,N
1602029895.1,286047000.8,N
1602029896.0,286047000.8,N
1602029915.8,286047000.6,N
1602029935.7,286046998.6,N
1602029955.5,286046998.3,N
1602029975.3,286046999.7,N
1602029995.2,286047000.6,N
1602030015.0,286046998.2,N
1602030015.9,286046998.2,N
1602030035.7,286047001.1,N
1602030055.6,286047002.0,N
1602030075.4,286047002.8,N
1602030095.3,286047002.6,N
1602030115.1,286047001.0,N
1602030116.0,286047001.0,N
1602030135.8,286047000.9,N
1602030155.7,286047001.5,N
1602030175.5,286047000.0,N
1602030195.4,286046998.1,N
1602030215.2,286047000.9,N
1602030235.0,286046996.8,N
1602030235.9,286046996.8,N
1602030255.8,286046997.9,N
1602030275.6,286046995.4,N
1602030295.4,286046996.0,N
1602030315.3,286046993.7,Y
1602030335.1,286046996.2,P
1602030355.9,286046997.5,N
1602030375.7,286047000.9,N
1602030395.5,286047002.0,N
1602030415.4,286047004.2,N
1602030435.2,286047004.1,N
1602030455.0,286047003.8,N
1602030455.9,286047003.8,N
1602030475.8,286047004.2,N
1602030495.6,286047005.5,N
1602030515.5,286047007.3,N
1602030535.3,286047007.2,N
1602030555.1,286047005.1,N
1602030575.9,286047004.6,N
1602030595.7,286047007.0,N
1602030615.5,286047007.3,N
1602030635.4,286047006.1,N
1602030655.2,286047008.6,N
1602030675.1,286047008.0,N
1602030676.0,286047008.0,N
1602030695.8,286047008.7,N
1602030715.6,286047008.5,N
1602030735.5,286047008.9,N
1602030755.3,286047009.2,N
1602030775.1,286047005.0,N
1602030795.9,286047007.1,N
1602030815.7,286047006.6,N
1602030835.6,286047008.4,N
1602030855.4,286047011.9,Y
1602030875.2,286047004.2,P
1602030895.1,286047001.4,N
1602030896.0,286047001.4,N
1602030915.8,286047003.8,N
1602030935.6,286047004.4,N
1602030955.5,286047002.9,N
1602030975.3,286047003.3,N
1602030995.2,286047003.3,N
1602031015.9,286047003.8,Y
1602031035.7,286046998.5,P
1602031055.6,286046996.6,N
1602031075.4,286046999.0,N
1602031095.2,286047000.2,N
1602031115.1,286047000.9,N
1602031116.0,286047000.9,N
1602031135.8,286046999.6,N
1602031155.7,286046996.6,N
1602031175.5,286046997.2,N
1602031195.3,286046997.3,N
1602031215.2,286046997.8,N
1602031235.0,286046997.0,N
1602031235.9,286046997.0,N
1602031255.8,286047001.1,N
1602031275.6,286047000.7,N
1602031295.4,286046999.3,N
1602031315.3,286046996.8,N
1602031335.1,286046998.9,N
1602031355.8,286046998.4,N
1602031375.7,286047000.7,N
1602031395.5,286046998.4,N
1602031415.4,286047000.7,N
1602031435.2,286047001.2,N
1602031455.0,286046996.7,N
1602031455.9,286046996.7,N
1602031475.8,286046995.3,N
1602031495.6,286046997.3,N
1602031515.4,286046994.9,N
1602031535.3,286046997.8,N
1602031555.1,286046996.4,N
1602031575.9,286046993.3,Y
1602031595.7,286046997.4,P
1602031615.5,286046996.3,P
1602031635.4,286046997.8,N
1602031655.2,286046996.9,Y
1602031675.0,286047002.3,P
1602031676.0,286047002.3,N
1602031695.8,286047002.4,N
1602031715.6,286047002.2,N
1602031735.5,286047003.9,N
1602031755.3,286047002.5,N
1602031775.1,286047001.9,N
1602031795.9,286047004.0,N
1602031815.7,286047003.9,N
1602031835.6,286046999.8,N
1602031855.4,286047000.6,N
1602031875.2,286046998.3,N
1602031895.1,286046998.7,N
1602031896.0,286046998.7,N
1602031915.8,286046999.1,N
1602031935.6,286046996.8,N
1602031955.5,286046997.4,N
1602031975.3,286046997.9,N
1602031995.2,286046996.8,N
1602032015.9,286046997.4,N
1602032035.7,286046996.6,N
1602032055.6,286046997.1,N
1602032075.4,286046998.6,N
1602032095.3,286046999.7,N
1602032115.1,286047004.4,N
1602032116.0,286047004.4,N
1602032135.8,286047005.9,N
1602032155.7,286047006.7,N
1602032175.5,286047009.2,Y
1602032195.4,286047005.3,P
1602032215.2,286047003.7,N
1602032235.0,286047003.9,N
1602032235